Powrót do katalogu

COSMOS 2535

AktywnyNawigacjaSSO
NORAD 44421·PAYLOAD·🇷🇺 Russia

Wystrzelony Jul 10, 2019 z Plesetsk Cosmodrome

Loading…

Następne Przeloty (najbliższe 24 godziny)

TLE

ŚwieżeSource: Space-Track

Epoka: Sep 14, 2026, 14:33 UTC

1 44421U 19039A   26257.60683987  .00000612  00000-0  65528-4 0  9995
2 44421  97.5729 282.3377 0006664 276.1734  83.8726 14.92084231389974

Śledź COSMOS 2535 w czasie rzeczywistym z AllMySat

Download on the App Store